Weather History for KASW - July, 2013

Change the Weather History Date:

Tuesday, July 2, 2013

  Actual Average Record
Temperature  
Mean Temperature 63 °F -  
Max Temperature 69 °F 82 °F 97 °F (1953)
Min Temperature 57 °F 61 °F 48 °F (1988)
Degree Days  
Heating Degree Days 2    
Growing Degree Days 13 (Base 50)    
Moisture  
Dew Point 59 °F    
Average Humidity 88    
Maximum Humidity 100    
Minimum Humidity 64    
Precipitation  
Precipitation 0.00 in - - ()
Sea Level Pressure  
Sea Level Pressure 30.04 in    
Wind  
Wind Speed 8 mph (NE)    
Max Wind Speed 14 mph    
Max Gust Speed 18 mph    
Visibility 6 miles    
Events Rain    
Averages and records for this station are not official NWS values.
T = Trace of Precipitation, MM = Missing Value Source: NWS Daily Summary

Daily Weather History Graph

Daily Weather History Graph

Search for Another Location

Airport or City:

Trip Planner

Search our weather history database for the weather conditions in past years. The results will help you decide how hot, cold, wet, or windy it might be!

Date:

Astronomy

Jul. 02, 2013 Rise Set
Actual Time 6:14 AM EDT 9:20 PM EDT
Civil Twilight 5:41 AM EDT 9:53 PM EDT
Nautical Twilight 4:58 AM EDT 10:36 PM EDT
Astronomical Twilight 4:07 AM EDT 11:27 PM EDT
Moon 2:18 AM EDT (7/2) 4:31 PM EDT (7/2)
Length of Visible Light 16h 12m
Length of Day
15h 05m
Waning Crescent, 26% of the Moon is Illuminated
Jul 2
Waning Crescent
Jul 8
New
Jul 15
First Quarter
Jul 22
Full
Jul 29
Last Quarter

Hourly Weather History & Observations

Time (EDT) Temp. Dew Point Humidity Pressure Visibility Wind Dir Wind Speed Gust Speed Precip Events Conditions
12:15 AM 64.4 °F 51.8 °F 64% 30.05 in 10.0 mi ENE 13.8 mph 17.3 mph N/A   Overcast
12:35 AM 62.6 °F 51.8 °F 68% 30.04 in 10.0 mi ENE 11.5 mph 16.1 mph N/A   Overcast
12:55 AM 62.6 °F 51.8 °F 68% 30.03 in 10.0 mi ENE 10.4 mph 18.4 mph N/A   Overcast
1:15 AM 62.6 °F 53.6 °F 72% 30.03 in 10.0 mi ENE 10.4 mph - N/A   Overcast
1:35 AM 62.6 °F 53.6 °F 72% 30.03 in 10.0 mi NE 6.9 mph - N/A   Overcast
1:55 AM 62.6 °F 53.6 °F 72% 30.03 in 10.0 mi NE 6.9 mph - N/A   Overcast
2:15 AM 62.6 °F 53.6 °F 72% 30.03 in 10.0 mi NE 4.6 mph - N/A   Overcast
2:35 AM 62.6 °F 53.6 °F 72% 30.03 in 10.0 mi NE 6.9 mph - N/A   Overcast
2:55 AM 62.6 °F 53.6 °F 72% 30.03 in 10.0 mi NE 11.5 mph - N/A   Overcast
3:15 AM 62.6 °F 53.6 °F 72% 30.02 in 10.0 mi NE 9.2 mph 16.1 mph N/A   Overcast
3:35 AM 62.6 °F 53.6 °F 72% 30.02 in 10.0 mi NNE 9.2 mph - N/A   Overcast
3:55 AM 62.6 °F 53.6 °F 72% 30.02 in 10.0 mi NE 8.1 mph - N/A   Overcast
4:15 AM 60.8 °F 55.4 °F 82% 30.01 in 10.0 mi NE 6.9 mph - N/A   Overcast
4:35 AM 60.8 °F 53.6 °F 77% 30.01 in 10.0 mi NE 12.7 mph - N/A   Overcast
4:55 AM 60.8 °F 53.6 °F 77% 30.02 in 10.0 mi NE 10.4 mph - N/A   Overcast
5:15 AM 60.8 °F 53.6 °F 77% 30.02 in 10.0 mi NE 8.1 mph - N/A   Overcast
5:35 AM 59.0 °F 53.6 °F 82% 30.02 in 10.0 mi NE 10.4 mph - N/A   Overcast
5:55 AM 59.0 °F 53.6 °F 82% 30.03 in 10.0 mi NE 10.4 mph - N/A   Overcast
6:15 AM 59.0 °F 53.6 °F 82% 30.03 in 10.0 mi NE 10.4 mph - N/A Rain Rain
6:35 AM 57.2 °F 53.6 °F 88% 30.03 in 10.0 mi NE 8.1 mph - N/A   Overcast
6:55 AM 57.2 °F 53.6 °F 88% 30.03 in 10.0 mi NE 6.9 mph - N/A   Overcast
7:15 AM 57.2 °F 53.6 °F 88% 30.04 in 10.0 mi NE 8.1 mph - N/A   Overcast
7:35 AM 57.2 °F 53.6 °F 88% 30.04 in 10.0 mi NE 9.2 mph - N/A Rain Light Rain
7:55 AM 57.2 °F 53.6 °F 88% 30.04 in 10.0 mi NE 6.9 mph - N/A   Light Drizzle
8:15 AM 57.2 °F 53.6 °F 88% 30.04 in 10.0 mi NE 9.2 mph - N/A   Drizzle
8:35 AM 57.2 °F 53.6 °F 88% 30.04 in 10.0 mi NE 8.1 mph - N/A Rain Rain
8:55 AM 57.2 °F 55.4 °F 94% 30.05 in 10.0 mi NE 8.1 mph - N/A Rain Rain
9:15 AM 57.2 °F 55.4 °F 94% 30.05 in 10.0 mi NE 5.8 mph - N/A   Overcast
9:35 AM 57.2 °F 55.4 °F 94% 30.05 in 10.0 mi NE 6.9 mph - N/A   Overcast
9:55 AM 59.0 °F 55.4 °F 88% 30.05 in 10.0 mi NNE 6.9 mph - N/A   Overcast
10:15 AM 59.0 °F 55.4 °F 88% 30.05 in 7.0 mi NNE 5.8 mph - N/A Rain Light Rain
10:35 AM 59.0 °F 55.4 °F 88% 30.05 in 7.0 mi NE 4.6 mph - N/A   Overcast
10:55 AM 59.0 °F 57.2 °F 94% 30.05 in 7.0 mi Calm Calm - N/A Rain Light Rain
11:15 AM 59.0 °F 57.2 °F 94% 30.06 in 7.0 mi NE 4.6 mph - N/A   Overcast
11:35 AM 60.8 °F 59.0 °F 94% 30.06 in 7.0 mi NE 3.5 mph - N/A   Overcast
11:55 AM 60.8 °F 59.0 °F 94% 30.05 in 5.0 mi ENE 6.9 mph - N/A Rain Light Rain
12:15 PM 60.8 °F 60.8 °F 100% 30.05 in 5.0 mi NE 4.6 mph - N/A Rain Light Rain
12:35 PM 60.8 °F 59.0 °F 94% 30.05 in 3.0 mi NE 3.5 mph - N/A Rain Light Rain
12:55 PM 60.8 °F 60.8 °F 100% 30.05 in 3.0 mi NE 5.8 mph - N/A   Light Drizzle
1:15 PM 60.8 °F 60.8 °F 100% 30.05 in 3.0 mi ENE 4.6 mph - N/A   Light Drizzle
1:35 PM 62.6 °F 60.8 °F 94% 30.05 in 2.5 mi ENE 3.5 mph - N/A   Light Drizzle
1:55 PM 62.6 °F 60.8 °F 94% 30.05 in 2.0 mi NE 4.6 mph - N/A   Overcast
2:15 PM 62.6 °F 62.6 °F 100% 30.05 in 1.8 mi ENE 6.9 mph - N/A   Overcast
2:35 PM 62.6 °F 62.6 °F 100% 30.05 in 2.5 mi East 5.8 mph - N/A   Overcast
2:55 PM 62.6 °F 62.6 °F 100% 30.05 in 2.5 mi East 5.8 mph - N/A   Overcast
3:15 PM 62.6 °F 62.6 °F 100% 30.05 in 1.8 mi ENE 5.8 mph - N/A   Overcast
3:35 PM 64.4 °F 62.6 °F 94% 30.04 in 2.0 mi ENE 4.6 mph - N/A   Overcast
3:55 PM 64.4 °F 62.6 °F 94% 30.04 in 3.0 mi East 5.8 mph - N/A   Overcast
4:15 PM 64.4 °F 62.6 °F 94% 30.04 in 3.0 mi ENE 4.6 mph - N/A   Overcast
4:35 PM 66.2 °F 64.4 °F 94% 30.04 in 4.0 mi ENE 4.6 mph - N/A   Overcast
4:55 PM 66.2 °F 64.4 °F 94% 30.03 in 4.0 mi Calm Calm - N/A   Overcast
5:15 PM 68.0 °F 64.4 °F 88% 30.03 in 4.0 mi NNE 4.6 mph - N/A   Overcast
5:35 PM 69.8 °F 64.4 °F 83% 30.02 in 5.0 mi Calm Calm - N/A   Haze
5:55 PM 68.0 °F 64.4 °F 88% 30.02 in 5.0 mi North 4.6 mph - N/A   Overcast
6:15 PM 68.0 °F 64.4 °F 88% 30.02 in 4.0 mi NNW 9.2 mph - N/A   Overcast
6:35 PM 68.0 °F 64.4 °F 88% 30.02 in 4.0 mi NNW 5.8 mph - N/A   Mostly Cloudy
6:55 PM 69.8 °F 64.4 °F 83% 30.01 in 4.0 mi North 8.1 mph - N/A   Mostly Cloudy
7:15 PM 68.0 °F 64.4 °F 88% 30.02 in 5.0 mi North 5.8 mph - N/A   Overcast
7:35 PM 68.0 °F 64.4 °F 88% 30.03 in 5.0 mi North 5.8 mph - N/A   Overcast
7:55 PM 68.0 °F 64.4 °F 88% 30.04 in 5.0 mi North 3.5 mph - N/A   Overcast
8:15 PM 68.0 °F 64.4 °F 88% 30.03 in 5.0 mi North 4.6 mph - N/A   Overcast
8:35 PM 68.0 °F 64.4 °F 88% 30.03 in 4.0 mi North 6.9 mph - N/A   Overcast
8:55 PM 68.0 °F 64.4 °F 88% 30.03 in 4.0 mi North 8.1 mph - N/A   Overcast
9:15 PM 66.2 °F 64.4 °F 94% 30.03 in 4.0 mi North 5.8 mph - N/A   Overcast
9:35 PM 64.4 °F 64.4 °F 100% 30.03 in 3.0 mi North 3.5 mph - N/A   Mostly Cloudy
9:55 PM 64.4 °F 62.6 °F 94% 30.03 in 4.0 mi North 3.5 mph - N/A   Scattered Clouds
10:15 PM 64.4 °F 62.6 °F 94% 30.04 in 4.0 mi Calm Calm - N/A   Clear
10:35 PM 64.4 °F 64.4 °F 100% 30.04 in 3.0 mi North 3.5 mph - N/A   Mostly Cloudy
10:55 PM 64.4 °F 62.6 °F 94% 30.05 in 3.0 mi Calm Calm - N/A   Mostly Cloudy
11:15 PM 64.4 °F 62.6 °F 94% 30.05 in 3.0 mi Calm Calm - N/A   Overcast
11:35 PM 64.4 °F 64.4 °F 100% 30.06 in 4.0 mi Calm Calm - N/A Rain Light Rain
11:55 PM 64.4 °F 64.4 °F 100% 30.05 in 4.0 mi East 5.8 mph - N/A Rain Rain